Date,TemperatureHighF,TemperatureAvgF,TemperatureLowF,DewpointHighF,DewpointAvgF,DewpointLowF,HumidityHigh,HumidityAvg,HumidityLow,PressureMaxIn,PressureMinIn,WindSpeedMaxMPH,WindSpeedAvgMPH,GustSpeedMaxMPH,PrecipitationSumIn
2013-3-1,99.0,84.2,79.0,90.0,83.8,79.0,99,98,75,29.65,29.53,2,0,8,0.01
2013-3-2,92.0,82.5,79.0,90.0,82.4,79.0,99,99,92,29.62,29.45,2,0,5,0.00
2013-3-3,98.0,83.2,77.0,90.0,82.7,77.0,99,97,78,29.57,29.41,3,0,9,0.53
2013-3-4,99.0,80.1,77.0,90.0,79.7,77.0,99,98,75,29.57,29.47,2,0,7,1.09
2013-3-5,100.0,81.8,77.0,90.0,80.8,77.0,99,97,71,29.66,29.52,2,0,11,0.24
2013-3-6,95.0,83.3,78.0,90.0,82.8,78.0,99,98,84,29.72,29.58,2,0,12,0.01
2013-3-7,96.0,84.0,78.0,88.0,82.6,78.0,99,95,69,29.75,29.65,2,1,8,0.01
2013-3-8,93.0,83.2,78.0,86.0,80.8,78.0,99,93,66,29.78,29.66,2,1,8,0.01
2013-3-9,93.0,81.3,75.0,87.0,79.9,75.0,99,95,67,29.78,29.68,3,0,8,0.47
2013-3-10,92.0,81.9,75.0,87.0,79.9,75.0,99,94,71,29.78,29.67,2,1,8,0.01
2013-3-11,94.0,82.4,75.0,81.0,77.8,75.0,99,87,56,29.75,29.65,3,1,11,0.24
2013-3-12,90.0,79.4,74.0,88.0,79.3,74.0,99,99,91,29.75,29.63,3,1,12,0.53
2013-3-13,86.0,78.2,74.0,86.0,78.2,74.0,99,99,99,29.69,29.57,3,0,8,0.54
2013-3-14,93.0,82.2,76.0,84.0,77.4,71.0,99,86,59,29.73,29.57,4,1,9,0.11
2013-3-15,99.0,83.1,70.0,83.0,71.5,60.0,99,73,31,29.82,29.70,2,0,9,0.00
2013-3-16,98.0,82.1,69.0,80.0,74.0,69.0,99,80,39,29.84,29.72,3,0,11,0.00
2013-3-17,98.0,83.4,70.0,83.0,75.2,70.0,99,80,43,29.83,29.69,2,0,8,0.00
2013-3-18,99.0,84.1,69.0,87.0,71.6,54.0,99,72,31,29.79,29.67,4,0,8,0.00
2013-3-19,100.0,84.1,75.0,87.0,80.5,75.0,99,90,56,29.81,29.72,3,1,9,0.04
2013-3-20,96.0,85.3,74.0,89.0,81.3,74.0,99,89,66,29.82,29.68,3,0,11,0.01
2013-3-21,98.0,84.9,76.0,90.0,81.4,76.0,99,90,61,29.83,29.70,4,1,11,0.08
2013-3-22,90.0,80.9,76.0,90.0,80.9,76.0,99,99,99,29.88,29.75,2,0,7,0.43
2013-3-23,83.0,79.8,77.0,83.0,79.8,77.0,99,99,99,29.88,29.78,4,0,10,0.74
2013-3-24,90.0,82.2,78.0,89.0,82.2,78.0,99,99,93,29.86,29.75,4,1,10,0.11
2013-3-25,92.0,83.5,77.0,89.0,82.2,77.0,99,96,80,29.83,29.73,3,1,9,0.47
2013-3-26,92.0,82.8,78.0,87.0,82.0,78.0,99,97,79,29.83,29.73,3,1,10,0.01
2013-3-27,96.0,81.2,73.0,90.0,79.7,73.0,99,95,66,29.87,29.75,4,0,11,0.39
2013-3-28,91.0,79.9,74.0,89.0,78.6,74.0,99,95,70,29.88,29.78,4,1,11,0.19
2013-3-29,96.0,81.6,74.0,89.0,78.6,73.0,99,92,48,29.87,29.76,2,0,10,0.09
2013-3-30,97.0,82.2,72.0,86.0,77.7,72.0,99,88,53,29.87,29.74,3,0,11,0.01
2013-3-31,96.0,83.1,71.0,88.0,75.2,-99.9,99,83,55,29.88,29.76,3,0,9,0.02